Location: Igon
(43.1667°N, 0.2333°W)
Time: 20:58:45
(UTC+00:00)

Cosmos 1844 - Pass Details

Date: 29 November 2020
Orbit: 821 x 869 km, 70.9° (Epoch: 19 January)

Event Time Altitude Azimuth Distance (km) Brightness Sun altitude
Rises 06:05:59 0° 217° (SW) 3,341 6.6 -11.7°
Reaches altitude 10° 06:08:28 10° 222° (SW) 2,412 5.9 -11.2°
Maximum altitude 06:13:51 54° 299° (WNW) 997 3.7 -10.3°
Drops below altitude 10° 06:19:19 10° 17° (NNE) 2,437 6.1 -9.4°
Sets 06:21:50 0° 22° (NNE) 3,379 6.9 -8.9°
